Regional Weather Roundup
Issued by NWS

Home | Current Version | Previous Version | Graphics & Text | Print | Product List | Glossary On
Versions: 1 2 3 4 5 6 7 8 9 10 11 12 13 14 15 16 17 18 19 20 21 22 23 24 25 26 27 28 29 30 31 32 33 34 35 36 37 38 39 40 41 42 43 44 45 46 47 48 49 50
795
ASUS43 KTOP 301708
RWRKS

WEATHER ROUNDUP FOR KANSAS
NATIONAL WEATHER SERVICE GOODLAND KS
1200 PM CDT MON MAY 30 2016

NOTE:  "FAIR" INDICATES FEW OR NO CLOUDS BELOW 12,000 FEET WITH NO
SIGNIFICANT WEATHER AND/OR OBSTRUCTIONS TO VISIBILITY.

KSZ001>006-013>018-027>032-041>047-301800-
NORTHWEST KANSAS

CITY           SKY/WX    TMP DP  RH WIND       PRES   REMARKS
GOODLAND       SUNNY     72  54  53 S12       29.98F
HAYS           SUNNY     77  55  47 S12G21    30.00F
HILL CITY      SUNNY     80  54  40 S15G22    29.98F
RUSSELL        PTSUNNY   75  59  57 S13       30.00F
$$

KSZ061>065-074>080-084>089-301800-
SOUTHWEST KANSAS

CITY           SKY/WX    TMP DP  RH WIND       PRES   REMARKS
DODGE CITY     SUNNY     74  53  48 S16       30.02F
ELKHART          N/A     77  55  46 SW13        N/A
GARDEN CITY    SUNNY     77  51  40 S12G20    30.00F
GREAT BEND     SUNNY     75  55  50 S13G18    30.01F
LIBERAL        SUNNY     75  55  50 SW12      30.03F
PRATT          SUNNY     74  53  48 SW10G17   30.02F
$$

KSZ066>073-081>083-090>101-301800-
SOUTHEAST KANSAS

CITY           SKY/WX    TMP DP  RH WIND       PRES   REMARKS
CHANUTE        CLOUDY    74  64  71 S12       30.07R
COFFEYVILLE    CLOUDY    70  66  87 SW9       30.07S
HUTCHINSON     CLOUDY    81  58  45 S10       30.01F
MEDICINE LODGE   N/A     78  55  44 S9        30.01F
NEWTON         SUNNY     79  57  47 SW9         N/A
PARSONS        CLOUDY    73  64  73 SW10      30.08R
WICHITA INTL   MOSUNNY   80  60  50 S15       30.02F
WICHITA JABRA  SUNNY     79  60  52 S14       30.03F
WICHITA MCCONL SUNNY     79  60  53 S15G22    30.03F
WINFIELD       CLOUDY    71  63  75 S14       30.07F
$$

KSZ007>012-019>026-033>040-048>060-102>105-301800-
NORTHEAST KANSAS

CITY           SKY/WX    TMP DP  RH WIND       PRES   REMARKS
CONCORDIA      CLOUDY    75  60  59 S14       29.99F
EMPORIA        SUNNY     79  60  52 SW8       30.02F
LAWRENCE       CLOUDY    83  67  58 S10       30.00F
MANHATTAN      SUNNY     81  65  58 S9        29.99F
MARYSVILLE     SUNNY     81  68  65 S7        29.99F
OLATHE IND     CLOUDY    80  68  66 S8        30.03F
OLATHE EXE     CLOUDY    78  69  73 SE8       30.03F
SALINA         CLOUDY    78  61  55 S7        30.01S
TOPEKA BILLARD   N/A     81  65  58 S10       30.00F
TOPEKA FORBES  SUNNY     82  66  58 S12       30.01F
$$




USA.gov is the U.S. government's official web portal to all federal, state and local government web resources and services.